STARLINK-1185, 45087

Orbit data source: Space-Track

STARLINK-1185, 45087 is a payload satellite owned by SpaceX/Seattle (US) in LEO that was launched on Wed, 29 Jan 2020 UTC via an FALCON 9 launch vehicle from the Air Force Eastern Test Range (AFETR). Payload-class satellites include a variety of spacecraft equipped with specific instruments for various scientific and technological missions. These include communications satellites like Starlink; space stations such as the ISS; scientific satellites like the Hubble; Earth observation satellites from companies like Planet Labs, Umbra, and HawkEye 360; GPS; miniature CubeSats for education and research; and military/defense satellites.

Loading next visibility...
Identifier
45087, 2020-006AV
Orbit
LEO
Country
Flag of USUS
Related business
Manufacturer
SpaceX/Seattle
Mission
Partially operational Commercial Communications
Bus & Motor
STARLINK, Unknown motor
Mass
260 kg wet, ~248 kg dry
Launch date (UTC)
2020-01-29 (7 years ago)
Launch vehicle
FALCON 9
Launch site
Air Force Eastern Test Range (AFETR)
Object type
Payload
Rocket body
Debris
Shape & HBR
Box + 1 Pan, 10.1 m
Radar Cross Section
13.562 m², Large (>1 m²)

Expand to show TLE details & history
Last TLE update: 11 hours ago

TLE from 11 hours ago
0 STARLINK-1185
1 45087U 20006AV  26263.93921982  .00041859  00000-0  55918-3 0  9992
2 45087  53.1531  32.6520 0004442 358.2075   1.8921 15.57660806367300
Epoch: 2026-09-20T22:32Z
TLE epoch observation values (Epoch: 2026-09-20T22:32:28.592Z)
Latitude
-0.00001°
Longitude
54.70665°
Altitude
392.332 km
Speed
7.678 km/s
True Right ascension
02h 10m 36s
True Declination
0° 00' 00"
Sunlit
Object was in full shadow at epoch
Visualization orbit readout
Latitude
Unknown
Longitude
Unknown
Altitude
Unknown
Speed
Unknown
Apparent Right ascension
Unknown
Apparent Declination
Unknown
Sunlit
N/A
Visualization observer readout
Local Sidereal Time
02:03:46
Azimuth
Unknown
Elevation
Unknown
Doppler factor
Unknown
Orbital elements
Apogee altitude
397.698 km
Perigee altitude
391.681 km
Semi-major axis
6,772.827 km
Eccentricity
0.00044
Inclination
53.1531°
RAAN
32.652°
Arg. of periapsis
358.2075°
True anomaly
1.89378°
Mean anomaly
1.8921°
Eccentric anomaly
1.89294°
Mean motion
3.89393 °/min
Orbital period
92.45 mins
BSTAR
0.00055918
Loading maneuver chart data...
Computing Atmospheric mass density...

Documentation

Showing up to 5 results
|